Regional Weather Roundup
Issued by NWS Charleston, WV

Home | Current Version | Previous Version | Graphics & Text | Print | Product List | Glossary On
Versions: 1 2 3 4 5 6 7 8 9 10 11 12 13 14 15 16 17 18 19 20 21 22 23 24 25 26 27 28 29 30 31 32 33 34 35 36 37 38 39 40 41 42 43 44 45 46 47 48 49 50
000
ASUS41 KRLX 210910
RWRRLX
West Virginia Regional Weather Roundup
National Weather Service Charleston WV
500 AM EDT TUE OCT 21 2014

Note: "fair" indicates few or no clouds below 12,000 feet with no
significant weather and/or obstructions to visibility.

WVZ003-211000-
Northern Panhandle of West Virginia

CITY           SKY/WX    TMP DP  RH WIND       PRES   REMARKS
WHEELING       CLOUDY    49  48  97 SW7       29.85S
$$

WVZ009-211000-
Northwest West Virginia

CITY           SKY/WX    TMP DP  RH WIND       PRES   REMARKS
PARKERSBURG    PTCLDY    48  46  93 CALM      29.91S
$$

WVZ006-211000-
Western West Virginia

CITY           SKY/WX    TMP DP  RH WIND       PRES   REMARKS
HUNTINGTON     MOCLDY    48  47  96 CALM      29.90F
$$

WVZ015-211000-
West Central West Virginia

CITY           SKY/WX    TMP DP  RH WIND       PRES   REMARKS
CHARLESTON     CLOUDY    51  49  92 SW3       29.90F
$$

WVZ022-031-211000-
North Central West Virginia

CITY           SKY/WX    TMP DP  RH WIND       PRES   REMARKS
CLARKSBURG     PTCLDY    50  47  89 SW3       29.88S
MORGANTOWN     CLOUDY    53  47  79 SW5       29.88R
$$

WVZ025-035-042-045-211000-
Southern West Virginia

CITY           SKY/WX    TMP DP  RH WIND       PRES   REMARKS
BECKLEY        RAIN      48  45  89 CALM      29.94R FOG
LOGAN            N/A     52  48  87 CALM      29.92F
BLUEFIELD      CLOUDY    51  45  79 W7        29.95F
LEWISBURG      DRIZZLE   50  46  86 CALM      29.93R
$$

WVZ047-211000-
Northern Mountains of West Virginia

CITY           SKY/WX    TMP DP  RH WIND       PRES   REMARKS
ELKINS         CLOUDY    52  46  80 VRB5      29.89F
$$

WVZ052-211000-
Eastern Panhandle of West Virginia

CITY           SKY/WX    TMP DP  RH WIND       PRES   REMARKS
MARTINSBURG    FOG       47  44  90 CALM      29.86S VSB 1/4
PETERSBURG     CLOUDY   N/A N/A N/A CALM      29.88S
$$



USA.gov is the U.S. government's official web portal to all federal, state and local government web resources and services.